| time (UTC) | temp C | wind direction | speed KPH | gust KPH | rain 1hr cm | rain 24hr cm | rain mn cm | humidity % | barometer mb |
| 20260507103519 | 13 | 88 | 3.2 | 8.0 | 0.00 | 0.43 | 0.38 | 93 | 1019.8 |
| 20260507103016 | 17 | 35 | 1.6 | 6.4 | 0.00 | 0.18 | 0.05 | 75 | 1016.8 |
| 20260507102535 | 12 | 127 | 4.8 | 12.9 | 0.00 | 0.43 | 0.38 | 94 | 1019.8 |
| 20260507102032 | 16 | 32 | 1.6 | 4.8 | 0.00 | 0.18 | 0.05 | 77 | 1016.9 |
| 20260507101532 | 12 | 122 | 4.8 | 9.7 | 0.00 | 0.43 | 0.38 | 94 | 1019.8 |
| 20260507101028 | 16 | 15 | 1.6 | 6.4 | 0.00 | 0.18 | 0.05 | 78 | 1017.0 |
| 20260507100528 | 13 | 112 | 6.4 | 14.5 | 0.00 | 0.43 | 0.38 | 93 | 1019.7 |
| 20260507100025 | 15 | 350 | 1.6 | 3.2 | 0.00 | 0.18 | 0.05 | 80 | 1016.9 |
| 20260507095524 | 13 | 103 | 4.8 | 9.7 | 0.00 | 0.43 | 0.38 | 92 | 1019.5 |
| 20260507095021 | 15 | 17 | 1.6 | 6.4 | 0.00 | 0.18 | 0.05 | 80 | 1016.9 |
| 20260507094520 | 13 | 342 | 3.2 | 6.4 | 0.00 | 0.43 | 0.38 | 90 | 1019.6 |
| 20260507094018 | 15 | 355 | 3.2 | 6.4 | 0.00 | 0.18 | 0.05 | 80 | 1017.0 |
| 20260507093516 | 12 | 121 | 4.8 | 12.9 | 0.00 | 0.43 | 0.38 | 91 | 1019.6 |
| 20260507093034 | 15 | 10 | 1.6 | 8.0 | 0.00 | 0.18 | 0.05 | 78 | 1016.9 |
| 20260507092533 | 13 | 119 | 4.8 | 12.9 | 0.00 | 0.43 | 0.38 | 85 | 1019.4 |
| 20260507092050 | 15 | 0 | 1.6 | 8.0 | 0.00 | 0.18 | 0.05 | 80 | 1016.6 |
| 20260507091529 | 12 | 64 | 3.2 | 9.7 | 0.00 | 0.43 | 0.38 | 87 | 1019.2 |
| 20260507091027 | 15 | 37 | 3.2 | 6.4 | 0.00 | 0.18 | 0.05 | 78 | 1016.7 |
| 20260507090525 | 12 | 108 | 4.8 | 9.7 | 0.00 | 0.43 | 0.38 | 90 | 1019.1 |
| 20260507090023 | 15 | 38 | 3.2 | 6.4 | 0.00 | 0.18 | 0.05 | 82 | 1016.8 |
| 20260507085521 | 12 | 69 | 3.2 | 8.0 | 0.00 | 0.43 | 0.38 | 92 | 1019.1 |
| 20260507085019 | 15 | 33 | 1.6 | 4.8 | 0.00 | 0.18 | 0.05 | 83 | 1016.8 |
| 20260507084518 | 12 | 73 | 3.2 | 8.0 | 0.00 | 0.43 | 0.38 | 92 | 1019.2 |
| 20260507084016 | 14 | 2 | 1.6 | 8.0 | 0.00 | 0.18 | 0.05 | 84 | 1016.9 |
| 20260507083534 | 11 | 115 | 3.2 | 8.0 | 0.00 | 0.43 | 0.38 | 92 | 1019.2 |
| 20260507083053 | 15 | 32 | 1.6 | 4.8 | 0.00 | 0.18 | 0.05 | 83 | 1016.8 |
| 20260507082530 | 11 | 95 | 3.2 | 8.0 | 0.00 | 0.43 | 0.38 | 96 | 1019.3 |
| 20260507082028 | 15 | 26 | 1.6 | 6.4 | 0.00 | 0.18 | 0.05 | 84 | 1016.7 |
| 20260507081527 | 10 | 103 | 3.2 | 8.0 | 0.00 | 0.43 | 0.38 | 99 | 1019.2 |
| 20260507081025 | 14 | 32 | 1.6 | 6.4 | 0.00 | 0.18 | 0.05 | 84 | 1016.8 |
| 20260507080523 | 10 | 125 | 4.8 | 11.3 | 0.00 | 0.43 | 0.38 | 98 | 1019.3 |
| 20260507080022 | 13 | 13 | 1.6 | 6.4 | 0.00 | 0.18 | 0.05 | 85 | 1016.7 |
| 20260507075519 | 10 | 97 | 4.8 | 9.7 | 0.00 | 0.43 | 0.38 | 99 | 1019.2 |
| 20260507075018 | 13 | 353 | 1.6 | 4.8 | 0.00 | 0.18 | 0.05 | 85 | 1016.8 |
| 20260507074535 | 10 | 69 | 3.2 | 8.0 | 0.00 | 0.43 | 0.38 | 99 | 1019.1 |
| 20260507074034 | 13 | 27 | 1.6 | 3.2 | 0.00 | 0.18 | 0.05 | 88 | 1016.8 |
| 20260507073531 | 10 | 103 | 3.2 | 6.4 | 0.00 | 0.43 | 0.38 | 99 | 1019.1 |
| 20260507073031 | 13 | 12 | 1.6 | 4.8 | 0.00 | 0.18 | 0.05 | 86 | 1016.9 |
| 20260507072528 | 10 | 96 | 1.6 | 6.4 | 0.00 | 0.43 | 0.38 | 99 | 1019.2 |
| 20260507072026 | 13 | 20 | 1.6 | 3.2 | 0.00 | 0.18 | 0.05 | 88 | 1016.8 |
| 20260507071524 | 10 | 359 | 1.6 | 4.8 | 0.00 | 0.43 | 0.38 | 99 | 1019.2 |
| 20260507071023 | 13 | 14 | 1.6 | 4.8 | 0.00 | 0.18 | 0.05 | 87 | 1016.7 |
| 20260507070521 | 10 | 111 | 1.6 | 6.4 | 0.00 | 0.43 | 0.38 | 99 | 1019.0 |
| 20260507070019 | 15 | 30 | 1.6 | 3.2 | 0.00 | 0.18 | 0.05 | 80 | 1016.6 |
| 20260507065517 | 10 | 326 | 1.6 | 6.4 | 0.00 | 0.43 | 0.38 | 99 | 1018.7 |
| 20260507065035 | 14 | 99 | 1.6 | 9.7 | 0.00 | 0.18 | 0.05 | 77 | 1016.4 |
| 20260507064533 | 10 | 58 | 1.6 | 4.8 | 0.00 | 0.43 | 0.38 | 99 | 1018.7 |
| 20260507064032 | 13 | 98 | 3.2 | 6.4 | 0.00 | 0.18 | 0.05 | 81 | 1016.4 |
| 20260507063529 | 10 | 74 | 3.2 | 8.0 | 0.00 | 0.43 | 0.38 | 99 | 1018.4 |
| 20260507063028 | 13 | 91 | 3.2 | 4.8 | 0.00 | 0.18 | 0.05 | 84 | 1016.3 |
| 20260507062525 | 10 | 91 | 3.2 | 8.0 | 0.00 | 0.43 | 0.38 | 99 | 1018.5 |
| 20260507062024 | 13 | 68 | 1.6 | 6.4 | 0.00 | 0.20 | 0.05 | 86 | 1016.2 |
| 20260507061521 | 10 | 40 | 3.2 | 4.8 | 0.00 | 0.43 | 0.38 | 99 | 1018.2 |
| 20260507061021 | 11 | 73 | 4.8 | 6.4 | 0.00 | 0.23 | 0.05 | 90 | 1016.2 |
| 20260507060537 | 9 | 83 | 3.2 | 9.7 | 0.00 | 0.43 | 0.38 | 99 | 1018.3 |
| 20260507060017 | 11 | 95 | 3.2 | 6.4 | 0.00 | 0.25 | 0.05 | 92 | 1016.4 |
| 20260507055533 | 8 | 91 | 3.2 | 8.0 | 0.00 | 0.46 | 0.38 | 99 | 1018.3 |
| 20260507055034 | 11 | 116 | 3.2 | 6.4 | 0.00 | 0.28 | 0.05 | 94 | 1016.4 |
| 20260507054529 | 8 | 80 | 3.2 | 6.4 | 0.00 | 0.48 | 0.38 | 99 | 1018.3 |
| 20260507054030 | 11 | 113 | 3.2 | 6.4 | 0.00 | 0.30 | 0.05 | 94 | 1016.4 |
| 20260507053525 | 8 | 103 | 1.6 | 4.8 | 0.00 | 0.48 | 0.38 | 99 | 1018.4 |
| 20260507053026 | 10 | 85 | 4.8 | 6.4 | 0.00 | 0.33 | 0.05 | 95 | 1016.4 |
| 20260507052522 | 8 | 344 | 0.0 | 4.8 | 0.03 | 0.51 | 0.38 | 99 | 1018.3 |
| 20260507052023 | 10 | 110 | 3.2 | 4.8 | 0.00 | 0.33 | 0.05 | 95 | 1016.4 |
| 20260507051518 | 8 | 159 | 0.0 | 3.2 | 0.05 | 0.53 | 0.38 | 99 | 1018.2 |
| 20260507051019 | 10 | 111 | 3.2 | 4.8 | 0.00 | 0.33 | 0.05 | 95 | 1016.3 |
| 20260507050534 | 8 | 79 | 1.6 | 3.2 | 0.05 | 0.53 | 0.36 | 99 | 1018.2 |
| 20260507050016 | 10 | 114 | 3.2 | 6.4 | 0.00 | 0.30 | 0.03 | 95 | 1016.2 |
| 20260507045551 | 8 | 96 | 1.6 | 4.8 | 0.05 | 0.56 | 0.36 | 99 | 1018.1 |
| 20260507045032 | 9 | 136 | 4.8 | 8.0 | 0.00 | 0.30 | 0.03 | 95 | 1016.1 |
| 20260507044548 | 8 | 91 | 1.6 | 3.2 | 0.05 | 0.56 | 0.36 | 99 | 1018.0 |
| 20260507044109 | 9 | 143 | 4.8 | 6.4 | 0.00 | 0.30 | 0.03 | 95 | 1016.1 |
| 20260507043544 | 8 | 96 | 1.6 | 3.2 | 0.05 | 0.56 | 0.36 | 99 | 1018.0 |
| 20260507043025 | 9 | 117 | 3.2 | 6.4 | 0.00 | 0.30 | 0.03 | 95 | 1016.1 |
| 20260507042540 | 8 | 85 | 1.6 | 4.8 | 0.05 | 0.53 | 0.36 | 99 | 1018.1 |
| 20260507042021 | 9 | 100 | 1.6 | 4.8 | 0.00 | 0.30 | 0.03 | 94 | 1016.1 |
| 20260507041516 | 8 | 115 | 1.6 | 4.8 | 0.03 | 0.51 | 0.33 | 99 | 1018.0 |
| 20260507041038 | 10 | 68 | 1.6 | 4.8 | 0.00 | 0.30 | 0.03 | 93 | 1016.0 |
| 20260507040532 | 8 | 102 | 1.6 | 4.8 | 0.03 | 0.51 | 0.30 | 99 | 1017.9 |
| 20260507040034 | 9 | 51 | 3.2 | 4.8 | 0.00 | 0.30 | 0.03 | 93 | 1015.9 |
| 20260507035529 | 8 | 101 | 1.6 | 3.2 | 0.05 | 0.51 | 0.30 | 99 | 1017.8 |
| 20260507035030 | 9 | 65 | 3.2 | 4.8 | 0.00 | 0.30 | 0.03 | 94 | 1015.8 |
| 20260507034525 | 7 | 92 | 3.2 | 4.8 | 0.05 | 0.51 | 0.30 | 99 | 1017.7 |
| 20260507034027 | 9 | 84 | 3.2 | 4.8 | 0.00 | 0.30 | 0.03 | 95 | 1015.8 |
| 20260507033521 | 7 | 73 | 1.6 | 3.2 | 0.08 | 0.48 | 0.30 | 99 | 1017.7 |
| 20260507033023 | 9 | 106 | 4.8 | 8.0 | 0.00 | 0.30 | 0.03 | 95 | 1015.8 |
| 20260507032517 | 8 | 105 | 3.2 | 6.4 | 0.10 | 0.48 | 0.30 | 99 | 1017.8 |
| 20260507032020 | 9 | 109 | 3.2 | 6.4 | 0.00 | 0.30 | 0.03 | 96 | 1015.8 |
| 20260507031534 | 8 | 100 | 3.2 | 6.4 | 0.10 | 0.48 | 0.30 | 99 | 1017.7 |
| 20260507031036 | 9 | 73 | 3.2 | 4.8 | 0.00 | 0.30 | 0.03 | 96 | 1015.9 |
| 20260507030530 | 8 | 107 | 4.8 | 6.4 | 0.13 | 0.48 | 0.28 | 99 | 1017.8 |
| 20260507030033 | 9 | 124 | 3.2 | 6.4 | 0.00 | 0.30 | 0.03 | 96 | 1015.8 |
| 20260507025526 | 8 | 110 | 4.8 | 9.7 | 0.13 | 0.46 | 0.28 | 99 | 1017.7 |
| 20260507025029 | 9 | 150 | 4.8 | 6.4 | 0.00 | 0.30 | 0.03 | 95 | 1015.7 |
| 20260507024522 | 8 | 97 | 3.2 | 6.4 | 0.13 | 0.43 | 0.25 | 99 | 1017.9 |
| 20260507024026 | 9 | 134 | 4.8 | 9.7 | 0.00 | 0.30 | 0.03 | 94 | 1015.9 |
| 20260507023519 | 7 | 103 | 3.2 | 6.4 | 0.13 | 0.41 | 0.23 | 99 | 1017.7 |
| 20260507023042 | 9 | 8 | 3.2 | 6.4 | 0.00 | 0.30 | 0.03 | 94 | 1015.9 |
| 20260507022535 | 7 | 94 | 3.2 | 4.8 | 0.13 | 0.41 | 0.20 | 99 | 1017.6 |
| 20260507022018 | 9 | 347 | 1.6 | 6.4 | 0.00 | 0.30 | 0.03 | 94 | 1015.7 |
| 20260507021531 | 7 | 93 | 3.2 | 4.8 | 0.13 | 0.46 | 0.18 | 99 | 1017.7 |
| 20260507021034 | 9 | 120 | 3.2 | 6.4 | 0.00 | 0.30 | 0.03 | 95 | 1015.8 |
| 20260507020527 | 7 | 115 | 4.8 | 6.4 | 0.10 | 0.46 | 0.18 | 99 | 1017.7 |
| 20260507020031 | 9 | 14 | 3.2 | 6.4 | 0.00 | 0.30 | 0.03 | 93 | 1015.8 |
| 20260507015523 | 7 | 110 | 3.2 | 6.4 | 0.08 | 0.43 | 0.15 | 99 | 1017.8 |
| 20260507015047 | 9 | 95 | 3.2 | 6.4 | 0.00 | 0.30 | 0.03 | 95 | 1015.7 |
| 20260507014520 | 7 | 105 | 3.2 | 4.8 | 0.08 | 0.41 | 0.13 | 99 | 1017.6 |
| 20260507014023 | 9 | 56 | 3.2 | 6.4 | 0.00 | 0.30 | 0.03 | 96 | 1015.9 |
| 20260507013537 | 7 | 111 | 3.2 | 4.8 | 0.05 | 0.38 | 0.10 | 99 | 1017.6 |
| 20260507013020 | 9 | 138 | 3.2 | 8.0 | 0.00 | 0.30 | 0.03 | 96 | 1015.8 |
| 20260507012533 | 7 | 113 | 1.6 | 6.4 | 0.05 | 0.38 | 0.08 | 99 | 1017.7 |
| 20260507012036 | 9 | 131 | 3.2 | 6.4 | 0.00 | 0.33 | 0.03 | 95 | 1015.8 |
| 20260507011529 | 7 | 123 | 1.6 | 4.8 | 0.05 | 0.36 | 0.05 | 99 | 1017.7 |
| 20260507011053 | 9 | 64 | 3.2 | 6.4 | 0.00 | 0.33 | 0.03 | 96 | 1015.8 |
| 20260507010525 | 7 | 96 | 4.8 | 11.3 | 0.05 | 0.36 | 0.05 | 99 | 1017.6 |
| 20260507010029 | 9 | 40 | 3.2 | 4.8 | 0.00 | 0.33 | 0.03 | 96 | 1015.9 |
| 20260507005542 | 7 | 100 | 4.8 | 9.7 | 0.05 | 0.38 | 0.05 | 99 | 1017.7 |
| 20260507005025 | 9 | 141 | 4.8 | 8.0 | 0.00 | 0.33 | 0.03 | 96 | 1015.8 |
| 20260507004518 | 7 | 135 | 6.4 | 9.7 | 0.05 | 0.38 | 0.05 | 99 | 1017.7 |
| 20260507004022 | 9 | 149 | 3.2 | 8.0 | 0.00 | 0.33 | 0.03 | 96 | 1015.9 |
| 20260507003535 | 7 | 125 | 6.4 | 12.9 | 0.03 | 0.36 | 0.03 | 99 | 1017.7 |
| 20260507003038 | 9 | 75 | 3.2 | 6.4 | 0.03 | 0.33 | 0.03 | 96 | 1016.0 |
| 20260507002531 | 7 | 111 | 8.0 | 17.7 | 0.00 | 0.33 | 0.00 | 99 | 1017.9 |
| 20260507002035 | 9 | 50 | 1.6 | 4.8 | 0.00 | 0.30 | 0.03 | 96 | 1015.9 |
| 20260507001527 | 7 | 118 | 11.3 | 25.7 | 0.00 | 0.33 | 0.00 | 99 | 1017.9 |
| 20260507001031 | 9 | 27 | 1.6 | 3.2 | 0.00 | 0.30 | 0.03 | 95 | 1015.9 |
| 20260507000523 | 7 | 115 | 12.9 | 24.1 | 0.00 | 0.33 | 0.00 | 99 | 1017.8 |
| 20260507000028 | 9 | 66 | 3.2 | 4.8 | 0.00 | 0.30 | 0.03 | 94 | 1016.0 |
| 20260506235520 | 7 | 118 | 11.3 | 22.5 | 0.00 | 0.33 | 0.00 | 99 | 1017.7 |
| 20260506235024 | 9 | 60 | 3.2 | 4.8 | 0.00 | 0.30 | 0.03 | 92 | 1016.1 |
| 20260506234516 | 7 | 109 | 12.9 | 24.1 | 0.00 | 0.33 | 0.00 | 99 | 1017.7 |
| 20260506234040 | 9 | 99 | 4.8 | 11.3 | 0.00 | 0.30 | 0.03 | 94 | 1016.2 |
| 20260506233532 | 7 | 103 | 12.9 | 27.4 | 0.00 | 0.33 | 0.00 | 99 | 1017.9 |
| 20260506233017 | 9 | 138 | 4.8 | 6.4 | 0.00 | 0.30 | 0.00 | 94 | 1016.4 |
| 20260506232529 | 7 | 108 | 14.5 | 27.4 | 0.00 | 0.33 | 0.00 | 99 | 1018.0 |
| 20260506232033 | 9 | 161 | 4.8 | 6.4 | 0.00 | 0.30 | 0.00 | 93 | 1016.4 |
| 20260506231525 | 7 | 104 | 14.5 | 27.4 | 0.00 | 0.33 | 0.00 | 99 | 1018.0 |
| 20260506231029 | 10 | 160 | 4.8 | 8.0 | 0.00 | 0.30 | 0.00 | 91 | 1016.4 |
| 20260506230541 | 7 | 104 | 14.5 | 30.6 | 0.00 | 0.33 | 0.00 | 99 | 1018.0 |
| 20260506230026 | 10 | 99 | 3.2 | 6.4 | 0.00 | 0.30 | 0.00 | 85 | 1016.6 |
| 20260506225537 | 7 | 110 | 16.1 | 29.0 | 0.00 | 0.33 | 0.00 | 99 | 1018.1 |
| 20260506225022 | 10 | 57 | 1.6 | 3.2 | 0.00 | 0.30 | 0.00 | 84 | 1016.5 |
| 20260506224534 | 7 | 112 | 16.1 | 27.4 | 0.00 | 0.33 | 0.00 | 99 | 1018.2 |
| 20260506224018 | 10 | 178 | 1.6 | 4.8 | 0.03 | 0.30 | 0.00 | 89 | 1016.7 |
| 20260506223550 | 7 | 111 | 17.7 | 30.6 | 0.00 | 0.33 | 0.00 | 99 | 1018.3 |
| 20260506223035 | 10 | 99 | 1.6 | 3.2 | 0.05 | 0.30 | 0.00 | 91 | 1016.6 |
| 20260506222546 | 7 | 105 | 16.1 | 32.2 | 0.00 | 0.33 | 0.00 | 99 | 1018.3 |
| 20260506222051 | 9 | 93 | 3.2 | 6.4 | 0.05 | 0.30 | 0.00 | 91 | 1016.8 |
| 20260506221523 | 7 | 112 | 12.9 | 29.0 | 0.00 | 0.33 | 0.00 | 99 | 1018.4 |
| 20260506221028 | 9 | 135 | 4.8 | 6.4 | 0.05 | 0.30 | 0.00 | 93 | 1016.7 |
| 20260506220519 | 7 | 115 | 12.9 | 25.7 | 0.00 | 0.33 | 0.00 | 99 | 1018.4 |
| 20260506220024 | 9 | 160 | 6.4 | 11.3 | 0.08 | 0.30 | 0.00 | 93 | 1016.7 |
| 20260506215535 | 7 | 115 | 14.5 | 24.1 | 0.00 | 0.33 | 0.33 | 99 | 1018.5 |
| 20260506215041 | 10 | 165 | 6.4 | 12.9 | 0.08 | 0.28 | 0.28 | 92 | 1016.8 |
| 20260506214531 | 7 | 114 | 14.5 | 29.0 | 0.00 | 0.33 | 0.33 | 98 | 1018.5 |
| 20260506214017 | 10 | 167 | 6.4 | 12.9 | 0.08 | 0.28 | 0.28 | 91 | 1016.9 |
| 20260506213527 | 7 | 106 | 14.5 | 27.4 | 0.00 | 0.33 | 0.33 | 99 | 1018.6 |
| 20260506213033 | 10 | 143 | 6.4 | 17.7 | 0.08 | 0.25 | 0.25 | 85 | 1016.9 |
| 20260506212523 | 7 | 114 | 19.3 | 33.8 | 0.00 | 0.33 | 0.33 | 99 | 1018.6 |
| 20260506212030 | 11 | 126 | 3.2 | 6.4 | 0.08 | 0.25 | 0.25 | 86 | 1016.8 |
| 20260506211518 | 7 | 116 | 19.3 | 37.0 | 0.00 | 0.33 | 0.33 | 99 | 1018.6 |
| 20260506211026 | 11 | 33 | 1.6 | 4.8 | 0.08 | 0.23 | 0.23 | 86 | 1016.8 |
| 20260506210535 | 8 | 117 | 16.1 | 30.6 | 0.00 | 0.33 | 0.33 | 99 | 1018.6 |
| 20260506210023 | 11 | 47 | 1.6 | 4.8 | 0.08 | 0.23 | 0.23 | 84 | 1016.9 |
| 20260506205531 | 8 | 118 | 16.1 | 24.1 | 0.00 | 0.33 | 0.33 | 99 | 1018.6 |
| 20260506205019 | 11 | 52 | 1.6 | 3.2 | 0.05 | 0.23 | 0.23 | 86 | 1017.0 |
| 20260506204527 | 8 | 120 | 12.9 | 22.5 | 0.00 | 0.33 | 0.33 | 99 | 1018.7 |
| 20260506204055 | 11 | 85 | 3.2 | 8.0 | 0.05 | 0.20 | 0.20 | 82 | 1017.1 |
| 20260506203523 | 8 | 119 | 12.9 | 27.4 | 0.00 | 0.33 | 0.33 | 99 | 1018.9 |
| 20260506203033 | 11 | 68 | 3.2 | 4.8 | 0.03 | 0.18 | 0.18 | 78 | 1017.2 |
| 20260506202539 | 8 | 117 | 16.1 | 27.4 | 0.00 | 0.33 | 0.33 | 99 | 1018.8 |
| 20260506202048 | 11 | 99 | 3.2 | 4.8 | 0.00 | 0.18 | 0.18 | 76 | 1017.3 |
| 20260506201555 | 8 | 122 | 14.5 | 25.7 | 0.00 | 0.33 | 0.33 | 99 | 1018.9 |
| 20260506201045 | 11 | 109 | 3.2 | 6.4 | 0.00 | 0.15 | 0.15 | 74 | 1017.1 |
| 20260506200531 | 8 | 116 | 12.9 | 24.1 | 0.00 | 0.33 | 0.33 | 98 | 1018.9 |
| 20260506200021 | 12 | 158 | 3.2 | 6.4 | 0.00 | 0.15 | 0.15 | 73 | 1017.1 |
| 20260506195527 | 8 | 105 | 12.9 | 22.5 | 0.00 | 0.33 | 0.33 | 98 | 1018.9 |
| 20260506195017 | 11 | 167 | 4.8 | 8.0 | 0.00 | 0.15 | 0.15 | 73 | 1017.0 |
| 20260506194523 | 8 | 112 | 11.3 | 20.9 | 0.00 | 0.33 | 0.33 | 97 | 1019.0 |
| 20260506194034 | 11 | 147 | 3.2 | 4.8 | 0.00 | 0.15 | 0.15 | 77 | 1017.2 |
| 20260506193520 | 8 | 107 | 9.7 | 16.1 | 0.00 | 0.33 | 0.33 | 95 | 1018.8 |
| 20260506193031 | 11 | 106 | 3.2 | 6.4 | 0.00 | 0.15 | 0.15 | 80 | 1016.9 |
| 20260506192556 | 8 | 115 | 8.0 | 20.9 | 0.00 | 0.33 | 0.33 | 92 | 1018.8 |
| 20260506192027 | 11 | 136 | 4.8 | 6.4 | 0.00 | 0.15 | 0.15 | 76 | 1016.8 |
| 20260506191532 | 8 | 106 | 6.4 | 12.9 | 0.00 | 0.33 | 0.33 | 93 | 1018.8 |
| 20260506191104 | 11 | 149 | 4.8 | 6.4 | 0.00 | 0.15 | 0.15 | 78 | 1016.7 |
| 20260506190528 | 8 | 113 | 6.4 | 11.3 | 0.00 | 0.33 | 0.33 | 93 | 1018.5 |
| 20260506190019 | 11 | 140 | 4.8 | 6.4 | 0.00 | 0.15 | 0.15 | 80 | 1016.6 |
| 20260506185525 | 8 | 138 | 8.0 | 19.3 | 0.03 | 0.33 | 0.33 | 94 | 1018.6 |
| 20260506185016 | 12 | 97 | 3.2 | 4.8 | 0.00 | 0.15 | 0.15 | 77 | 1016.7 |
| 20260506184520 | 8 | 134 | 6.4 | 14.5 | 0.05 | 0.33 | 0.33 | 94 | 1018.5 |
| 20260506184032 | 12 | 129 | 3.2 | 4.8 | 0.00 | 0.15 | 0.15 | 73 | 1016.8 |
| 20260506183516 | 8 | 122 | 6.4 | 12.9 | 0.05 | 0.33 | 0.33 | 93 | 1018.4 |
| 20260506183029 | 12 | 155 | 1.6 | 4.8 | 0.00 | 0.15 | 0.15 | 74 | 1016.6 |
| 20260506182532 | 8 | 127 | 4.8 | 11.3 | 0.05 | 0.33 | 0.33 | 95 | 1018.5 |
| 20260506182145 | 12 | 139 | 3.2 | 6.4 | 0.00 | 0.15 | 0.15 | 74 | 1016.4 |
| 20260506181528 | 8 | 113 | 6.4 | 12.9 | 0.05 | 0.33 | 0.33 | 95 | 1018.4 |
| 20260506181021 | 12 | 146 | 4.8 | 9.7 | 0.00 | 0.15 | 0.15 | 75 | 1016.4 |
| 20260506180523 | 8 | 141 | 9.7 | 17.7 | 0.05 | 0.33 | 0.33 | 95 | 1018.4 |
| 20260506180017 | 12 | 155 | 6.4 | 9.7 | 0.00 | 0.15 | 0.15 | 77 | 1016.3 |
| 20260506175520 | 8 | 115 | 3.2 | 9.7 | 0.03 | 0.30 | 0.30 | 93 | 1018.3 |
| 20260506175034 | 12 | 150 | 4.8 | 6.4 | 0.00 | 0.15 | 0.15 | 77 | 1016.2 |
| 20260506174515 | 9 | 116 | 4.8 | 14.5 | 0.00 | 0.28 | 0.28 | 91 | 1018.3 |
| 20260506174030 | 12 | 147 | 4.8 | 9.7 | 0.00 | 0.15 | 0.15 | 76 | 1016.1 |
| 20260506173532 | 10 | 136 | 6.4 | 20.9 | 0.00 | 0.28 | 0.28 | 88 | 1018.3 |
| 20260506173027 | 12 | 163 | 6.4 | 8.0 | 0.00 | 0.15 | 0.15 | 76 | 1016.1 |
| 20260506172528 | 10 | 145 | 6.4 | 17.7 | 0.00 | 0.28 | 0.28 | 84 | 1018.3 |
| 20260506172124 | 12 | 162 | 6.4 | 11.3 | 0.00 | 0.15 | 0.15 | 75 | 1016.2 |
| 20260506171544 | 10 | 118 | 8.0 | 14.5 | 0.00 | 0.28 | 0.28 | 85 | 1018.2 |
| 20260506171019 | 13 | 118 | 1.6 | 3.2 | 0.00 | 0.15 | 0.15 | 72 | 1016.2 |
| 20260506170519 | 8 | 127 | 9.7 | 20.9 | 0.00 | 0.28 | 0.28 | 96 | 1018.2 |
| 20260506170016 | 13 | 95 | 1.6 | 4.8 | 0.00 | 0.15 | 0.15 | 71 | 1016.2 |
| 20260506165515 | 8 | 97 | 8.0 | 20.9 | 0.00 | 0.28 | 0.28 | 96 | 1018.3 |
| 20260506165032 | 13 | 125 | 3.2 | 6.4 | 0.00 | 0.15 | 0.15 | 71 | 1016.1 |
| 20260506164531 | 9 | 115 | 9.7 | 20.9 | 0.00 | 0.28 | 0.28 | 96 | 1018.4 |
| 20260506164049 | 13 | 149 | 3.2 | 8.0 | 0.00 | 0.15 | 0.15 | 70 | 1016.2 |
| 20260506163528 | 9 | 86 | 6.4 | 17.7 | 0.00 | 0.28 | 0.28 | 94 | 1018.4 |
| 20260506163025 | 13 | 164 | 4.8 | 8.0 | 0.00 | 0.15 | 0.15 | 69 | 1016.1 |
| 20260506162543 | 9 | 96 | 6.4 | 17.7 | 0.00 | 0.28 | 0.28 | 92 | 1018.5 |
| 20260506162021 | 13 | 162 | 4.8 | 12.9 | 0.00 | 0.15 | 0.15 | 67 | 1016.2 |
| 20260506161519 | 9 | 57 | 4.8 | 9.7 | 0.00 | 0.28 | 0.28 | 93 | 1018.5 |
| 20260506161018 | 13 | 163 | 4.8 | 8.0 | 0.00 | 0.15 | 0.15 | 68 | 1016.3 |
| 20260506160535 | 10 | 97 | 4.8 | 11.3 | 0.00 | 0.28 | 0.28 | 93 | 1018.6 |
| 20260506160054 | 13 | 169 | 6.4 | 12.9 | 0.00 | 0.15 | 0.15 | 67 | 1016.3 |
| 20260506155532 | 10 | 129 | 4.8 | 11.3 | 0.00 | 0.28 | 0.28 | 94 | 1018.7 |
| 20260506155051 | 13 | 173 | 6.4 | 11.3 | 0.00 | 0.15 | 0.15 | 68 | 1016.4 |
| 20260506154527 | 10 | 129 | 6.4 | 12.9 | 0.00 | 0.28 | 0.28 | 93 | 1018.6 |
| 20260506154027 | 13 | 170 | 8.0 | 14.5 | 0.00 | 0.15 | 0.15 | 67 | 1016.4 |
| 20260506153543 | 10 | 120 | 4.8 | 12.9 | 0.00 | 0.28 | 0.28 | 92 | 1018.5 |
| 20260506153023 | 13 | 175 | 9.7 | 14.5 | 0.00 | 0.15 | 0.15 | 69 | 1016.4 |
| 20260506152539 | 10 | 131 | 3.2 | 9.7 | 0.00 | 0.28 | 0.28 | 94 | 1018.6 |
| 20260506152040 | 13 | 177 | 8.0 | 14.5 | 0.00 | 0.15 | 0.15 | 70 | 1016.4 |
| 20260506151535 | 10 | 142 | 6.4 | 16.1 | 0.00 | 0.28 | 0.28 | 93 | 1018.8 |
| 20260506151016 | 13 | 182 | 8.0 | 14.5 | 0.00 | 0.15 | 0.15 | 70 | 1016.5 |
| 20260506150531 | 10 | 36 | 3.2 | 8.0 | 0.00 | 0.28 | 0.28 | 92 | 1018.8 |
| 20260506150032 | 13 | 175 | 8.0 | 12.9 | 0.00 | 0.15 | 0.15 | 71 | 1016.4 |
| 20260506145526 | 10 | 80 | 6.4 | 11.3 | 0.00 | 0.28 | 0.28 | 89 | 1018.9 |
| 20260506145029 | 13 | 178 | 6.4 | 14.5 | 0.00 | 0.15 | 0.15 | 70 | 1016.3 |
| 20260506144522 | 10 | 115 | 9.7 | 17.7 | 0.00 | 0.28 | 0.28 | 88 | 1018.7 |
| 20260506144025 | 13 | 175 | 6.4 | 11.3 | 0.00 | 0.15 | 0.15 | 71 | 1016.3 |
| 20260506143518 | 10 | 123 | 11.3 | 20.9 | 0.00 | 0.28 | 0.28 | 88 | 1018.7 |
| 20260506143022 | 14 | 198 | 6.4 | 12.9 | 0.00 | 0.15 | 0.15 | 71 | 1016.6 |
| 20260506142534 | 11 | 92 | 9.7 | 19.3 | 0.00 | 0.28 | 0.28 | 87 | 1018.8 |
| 20260506142018 | 14 | 174 | 4.8 | 14.5 | 0.00 | 0.15 | 0.15 | 69 | 1016.5 |
| 20260506141530 | 11 | 101 | 11.3 | 27.4 | 0.00 | 0.28 | 0.28 | 85 | 1018.8 |
| 20260506141035 | 15 | 199 | 6.4 | 11.3 | 0.00 | 0.15 | 0.15 | 68 | 1016.6 |
| 20260506140526 | 11 | 96 | 9.7 | 20.9 | 0.00 | 0.28 | 0.28 | 86 | 1018.8 |
| 20260506140031 | 15 | 181 | 4.8 | 11.3 | 0.00 | 0.15 | 0.15 | 66 | 1016.6 |
| 20260506135522 | 11 | 103 | 9.7 | 16.1 | 0.00 | 0.28 | 0.28 | 87 | 1018.7 |
| 20260506135027 | 15 | 226 | 3.2 | 9.7 | 0.00 | 0.15 | 0.15 | 63 | 1016.5 |
| 20260506134517 | 11 | 106 | 9.7 | 16.1 | 0.00 | 0.28 | 0.28 | 86 | 1018.8 |
| 20260506134043 | 15 | 172 | 3.2 | 8.0 | 0.00 | 0.15 | 0.15 | 62 | 1016.5 |
| 20260506133554 | 12 | 116 | 9.7 | 16.1 | 0.00 | 0.28 | 0.28 | 84 | 1018.8 |
| 20260506133020 | 16 | 223 | 3.2 | 8.0 | 0.00 | 0.15 | 0.15 | 68 | 1016.7 |
| 20260506132529 | 12 | 106 | 6.4 | 19.3 | 0.00 | 0.28 | 0.28 | 83 | 1019.0 |
| 20260506132016 | 16 | 95 | 1.6 | 3.2 | 0.00 | 0.15 | 0.15 | 69 | 1016.6 |
| 20260506131525 | 12 | 92 | 6.4 | 17.7 | 0.00 | 0.28 | 0.28 | 81 | 1019.1 |
| 20260506131133 | 17 | 127 | 1.6 | 3.2 | 0.00 | 0.15 | 0.15 | 65 | 1016.7 |
| 20260506130521 | 12 | 98 | 8.0 | 20.9 | 0.00 | 0.28 | 0.28 | 81 | 1019.2 |
| 20260506130029 | 16 | 40 | 0.0 | 4.8 | 0.00 | 0.15 | 0.15 | 66 | 1016.8 |
| 20260506125517 | 12 | 101 | 8.0 | 16.1 | 0.00 | 0.28 | 0.28 | 83 | 1019.2 |
| 20260506125026 | 17 | 23 | 0.0 | 3.2 | 0.00 | 0.15 | 0.15 | 69 | 1016.8 |
| 20260506124533 | 12 | 112 | 9.7 | 17.7 | 0.00 | 0.28 | 0.28 | 87 | 1019.3 |
| 20260506124022 | 17 | 73 | 1.6 | 3.2 | 0.00 | 0.15 | 0.15 | 70 | 1016.9 |
| 20260506123529 | 12 | 109 | 4.8 | 12.9 | 0.00 | 0.28 | 0.28 | 88 | 1019.3 |
| 20260506123019 | 16 | 350 | 1.6 | 4.8 | 0.00 | 0.15 | 0.15 | 72 | 1016.8 |
| 20260506122545 | 12 | 101 | 6.4 | 14.5 | 0.00 | 0.28 | 0.28 | 87 | 1019.3 |
| 20260506122034 | 17 | 360 | 1.6 | 3.2 | 0.00 | 0.15 | 0.15 | 69 | 1016.7 |
| 20260506121521 | 13 | 87 | 4.8 | 16.1 | 0.00 | 0.28 | 0.28 | 83 | 1019.2 |
| 20260506121030 | 18 | 43 | 1.6 | 9.7 | 0.00 | 0.15 | 0.15 | 67 | 1016.7 |
| 20260506120537 | 13 | 8 | 3.2 | 9.7 | 0.00 | 0.28 | 0.28 | 84 | 1019.1 |
| 20260506120027 | 18 | 80 | 1.6 | 4.8 | 0.00 | 0.15 | 0.15 | 67 | 1016.6 |
| 20260506115532 | 13 | 58 | 3.2 | 8.0 | 0.00 | 0.28 | 0.28 | 87 | 1019.2 |
| 20260506115023 | 18 | 125 | 0.0 | 3.2 | 0.00 | 0.15 | 0.15 | 58 | 1016.8 |
| 20260506114549 | 13 | 131 | 4.8 | 17.7 | 0.00 | 0.28 | 0.28 | 86 | 1019.2 |
| 20260506114019 | 17 | 355 | 0.0 | 4.8 | 0.00 | 0.15 | 0.15 | 67 | 1016.8 |
| 20260506113525 | 12 | 123 | 6.4 | 14.5 | 0.00 | 0.28 | 0.28 | 86 | 1019.3 |
| 20260506113016 | 17 | 0 | 1.6 | 6.4 | 0.00 | 0.15 | 0.15 | 72 | 1016.7 |
| 20260506112520 | 12 | 132 | 6.4 | 16.1 | 0.00 | 0.28 | 0.28 | 83 | 1019.1 |
| 20260506112113 | 16 | 303 | 1.6 | 6.4 | 0.00 | 0.15 | 0.15 | 74 | 1016.7 |
| 20260506111516 | 12 | 148 | 8.0 | 20.9 | 0.00 | 0.28 | 0.28 | 86 | 1019.2 |
| 20260506111029 | 17 | 26 | 1.6 | 6.4 | 0.00 | 0.15 | 0.15 | 56 | 1016.8 |
| 20260506110613 | 12 | 139 | 8.0 | 20.9 | 0.00 | 0.28 | 0.28 | 88 | 1019.3 |
| 20260506110025 | 17 | 328 | 3.2 | 8.0 | 0.00 | 0.15 | 0.15 | 59 | 1017.0 |
| 20260506105549 | 11 | 150 | 11.3 | 25.7 | 0.00 | 0.28 | 0.28 | 90 | 1019.3 |
| 20260506105022 | 17 | 322 | 3.2 | 9.7 | 0.00 | 0.15 | 0.15 | 61 | 1017.1 |
| 20260506104524 | 12 | 144 | 9.7 | 19.3 | 0.00 | 0.28 | 0.28 | 90 | 1019.2 |
| 20260506104018 | 16 | 313 | 1.6 | 8.0 | 0.00 | 0.15 | 0.15 | 67 | 1016.9 |